FW4808 Weather Reports


time (UTC)temp
F
wind
direction
speed
knots
gust
knots
rain 1hr
in
rain 24hr
in
rain mn
in
humidity
%
barometer
mb
20260504082004 47 0 0.0 0.0 0.00 0.00 0.00 55 1014.5
20260504081504 46 0 0.0 0.0 0.00 0.00 0.00 54 1014.5
20260504081004 46 0 0.0 0.0 0.00 0.00 0.00 53 1014.5
20260504080503 46 0 0.0 0.0 0.00 0.00 0.00 53 1014.5
20260504060218 44 0 0.0 0.0 0.00 0.00 0.00 59 1014.8
20260504050503 44 0 0.0 0.0 0.00 0.00 0.00 63 1015.0
20260504050003 45 0 0.0 0.0 0.00 0.00 0.00 63 1015.0
20260504045503 45 0 0.0 0.0 0.00 0.00 0.00 63 1015.0
20260504045003 45 0 0.0 0.0 0.00 0.00 0.00 63 1014.9
20260504044504 45 0 0.0 0.0 0.00 0.00 0.00 62 1014.9
20260504044003 46 0 0.0 0.0 0.00 0.00 0.00 61 1015.0
20260504043503 46 0 0.0 0.0 0.00 0.00 0.00 58 1014.9
20260504043003 46 0 0.0 0.0 0.00 0.00 0.00 58 1014.8
20260504042503 46 0 0.0 0.0 0.00 0.00 0.00 59 1014.8
20260504042003 46 0 0.0 0.0 0.00 0.00 0.00 62 1014.8
20260504041504 46 0 0.0 0.0 0.00 0.00 0.00 62 1014.8
20260504041003 46 0 0.0 0.0 0.00 0.00 0.00 60 1014.8
20260504040503 46 0 0.0 0.0 0.00 0.00 0.00 58 1014.7
20260504040004 46 0 0.0 0.0 0.00 0.00 0.00 57 1014.6
20260504035503 46 0 0.0 0.0 0.00 0.00 0.00 56 1014.6
20260504035003 46 0 0.0 0.0 0.00 0.00 0.00 58 1014.6
20260504034504 46 0 0.0 0.0 0.00 0.00 0.00 60 1014.6
20260504034003 46 0 0.0 0.0 0.00 0.00 0.00 59 1014.6
20260504033503 46 0 0.0 0.0 0.00 0.00 0.00 59 1014.7
20260504033003 46 0 0.0 0.0 0.00 0.00 0.00 61 1014.7
20260504032503 46 0 0.0 0.0 0.00 0.00 0.00 61 1014.8
20260504032003 46 0 0.0 0.0 0.00 0.00 0.00 60 1014.8
20260504031503 47 0 0.0 0.0 0.00 0.00 0.00 58 1014.6
20260504031217 47 0 0.0 0.0 0.00 0.00 0.00 58 1014.6
20260504030504 47 0 0.0 0.0 0.00 0.00 0.00 57 1014.5
20260504030003 47 0 0.0 0.0 0.00 0.00 0.00 58 1014.5
20260504025503 47 0 0.0 0.0 0.00 0.00 0.00 57 1014.5
20260504025003 47 0 0.0 0.0 0.00 0.00 0.00 57 1014.5
20260504024718 48 0 0.0 0.0 0.00 0.00 0.00 56 1014.5
20260504024217 48 0 0.0 0.0 0.00 0.00 0.00 56 1014.5
20260504023503 48 0 0.0 0.0 0.00 0.00 0.00 55 1014.5
20260504023004 48 0 0.0 0.0 0.00 0.00 0.00 54 1014.5
20260504022503 49 0 0.0 0.0 0.00 0.00 0.00 54 1014.5
20260504022003 49 0 0.0 0.0 0.00 0.00 0.00 54 1014.4
20260504021718 49 0 0.0 0.0 0.00 0.00 0.00 54 1014.4
20260504021003 50 0 0.0 0.0 0.00 0.00 0.00 54 1014.4
20260504020718 50 0 0.0 0.0 0.00 0.00 0.00 53 1014.4
20260504020004 50 0 0.0 0.0 0.00 0.00 0.00 49 1014.3
20260504015503 50 0 0.0 0.0 0.00 0.00 0.00 48 1014.2
20260504015003 50 0 0.0 0.0 0.00 0.00 0.00 50 1014.3
20260504014503 50 0 0.0 0.0 0.00 0.00 0.00 51 1014.3
20260504014003 51 0 0.0 0.0 0.00 0.00 0.00 50 1014.2
20260504013503 51 0 0.0 0.0 0.00 0.00 0.00 49 1014.2
20260504013003 51 0 0.0 0.0 0.00 0.00 0.00 47 1014.2
20260504012503 52 0 0.0 0.0 0.00 0.00 0.00 46 1014.1
20260504012003 52 0 0.0 0.0 0.00 0.00 0.00 46 1014.1
20260504011503 52 0 0.0 0.0 0.00 0.00 0.00 47 1014.0
20260504011003 53 0 0.0 0.0 0.00 0.00 0.00 44 1014.0
20260504010503 53 0 0.0 0.0 0.00 0.00 0.00 43 1014.0
20260504010003 53 0 0.0 0.0 0.00 0.00 0.00 43 1013.9
20260504005503 54 0 0.0 0.0 0.00 0.00 0.00 42 1013.9
20260504005004 54 0 0.0 0.0 0.00 0.00 0.00 41 1013.9
20260504004504 54 0 0.0 0.0 0.00 0.00 0.00 40 1013.9
20260504004003 54 269 0.0 0.9 0.00 0.00 0.00 39 1013.8
20260504003504 54 270 0.9 4.3 0.00 0.00 0.00 39 1013.8
20260504003003 55 270 0.9 5.2 0.00 0.00 0.00 39 1013.7
20260504002503 55 268 0.9 5.2 0.00 0.00 0.00 39 1013.6
20260504002218 55 266 0.0 3.5 0.00 0.00 0.00 39 1013.6
20260504001503 55 255 0.0 0.9 0.00 0.00 0.00 38 1013.6
20260504001003 56 0 0.0 0.0 0.00 0.00 0.00 38 1013.7
20260504000504 56 268 0.0 0.9 0.00 0.00 0.00 37 1013.6
20260504000004 56 272 0.0 1.7 0.00 0.00 0.00 37 1013.6
20260503235503 57 276 0.0 1.7 0.00 0.00 0.00 37 1013.4
20260503235003 57 277 0.9 6.1 0.00 0.00 0.00 37 1013.4
20260503234503 57 274 0.9 6.1 0.00 0.00 0.00 36 1013.4
20260503234003 58 266 0.9 8.7 0.00 0.00 0.00 35 1013.3
20260503233503 58 270 2.6 8.7 0.00 0.00 0.00 35 1013.2
20260503233217 58 271 2.6 8.7 0.00 0.00 0.00 34 1013.3
20260503232503 58 278 0.9 7.8 0.00 0.00 0.00 34 1013.2
20260503232003 58 272 1.7 7.8 0.00 0.00 0.00 33 1013.0
20260503231503 59 269 1.7 6.1 0.00 0.00 0.00 34 1013.1
20260503231003 59 277 1.7 9.6 0.00 0.00 0.00 33 1013.0
20260503230718 59 279 1.7 9.6 0.00 0.00 0.00 33 1012.9
20260503230003 59 274 2.6 12.2 0.00 0.00 0.00 32 1013.0
20260503225503 59 272 2.6 12.2 0.00 0.00 0.00 32 1013.0
20260503225004 59 275 1.7 8.7 0.00 0.00 0.00 33 1013.0
20260503224503 59 282 3.5 8.7 0.00 0.00 0.00 32 1013.1
20260503224003 59 277 5.2 13.9 0.00 0.00 0.00 33 1013.1
20260503223718 59 272 5.2 13.9 0.00 0.00 0.00 33 1013.2
20260503223217 59 267 7.0 15.6 0.00 0.00 0.00 33 1013.2
20260503222503 60 274 5.2 15.6 0.00 0.00 0.00 32 1013.1
20260503222004 60 273 4.3 13.9 0.00 0.00 0.00 33 1013.2
20260503221504 60 271 3.5 13.9 0.00 0.00 0.00 32 1013.1
20260503221217 60 275 2.6 13.0 0.00 0.00 0.00 33 1013.1
20260503220503 60 282 4.3 12.2 0.00 0.00 0.00 33 1013.1
20260503220003 60 270 4.3 14.8 0.00 0.00 0.00 33 1013.1
20260503215503 60 272 4.3 14.8 0.00 0.00 0.00 33 1013.2
20260503215003 60 279 5.2 14.8 0.00 0.00 0.00 33 1013.3
20260503214503 60 275 5.2 14.8 0.00 0.00 0.00 33 1013.3
20260503214004 60 276 3.5 12.2 0.00 0.00 0.00 33 1013.2
20260503213503 60 282 2.6 10.4 0.00 0.00 0.00 32 1013.2
20260503213003 60 274 1.7 8.7 0.00 0.00 0.00 33 1013.1
20260503212504 60 263 2.6 9.6 0.00 0.00 0.00 33 1013.1
20260503212003 60 274 2.6 13.9 0.00 0.00 0.00 33 1013.2
20260503211503 60 278 3.5 13.9 0.00 0.00 0.00 32 1013.2
20260503211003 60 271 2.6 12.2 0.00 0.00 0.00 32 1013.2
20260503210718 60 280 1.7 11.3 0.00 0.00 0.00 32 1013.2
20260503210003 60 277 2.6 11.3 0.00 0.00 0.00 33 1013.2
20260503205504 60 266 3.5 12.2 0.00 0.00 0.00 33 1013.2
20260503205003 59 267 5.2 13.0 0.00 0.00 0.00 32 1013.1
20260503204503 59 271 4.3 13.0 0.00 0.00 0.00 32 1013.1
20260503204003 59 277 3.5 13.0 0.00 0.00 0.00 32 1013.1
20260503203718 59 278 3.5 9.6 0.00 0.00 0.00 32 1013.1
20260503203003 59 280 4.3 17.4 0.00 0.00 0.00 32 1013.2
20260503202717 59 281 4.3 17.4 0.00 0.00 0.00 32 1013.3
20260503202003 59 272 6.1 17.4 0.00 0.00 0.00 32 1013.4
20260503201503 59 266 5.2 17.4 0.00 0.00 0.00 31 1013.4
20260503201004 59 262 4.3 13.9 0.00 0.00 0.00 32 1013.4
20260503200503 59 265 7.0 14.8 0.00 0.00 0.00 32 1013.3
20260503200003 59 271 6.1 14.8 0.00 0.00 0.00 31 1013.5
20260503195504 59 273 4.3 13.9 0.00 0.00 0.00 32 1013.6
20260503195003 59 277 3.5 8.7 0.00 0.00 0.00 33 1013.6
20260503194503 59 272 3.5 12.2 0.00 0.00 0.00 32 1013.7
20260503194003 59 266 3.5 12.2 0.00 0.00 0.00 32 1013.8
20260503193503 59 269 2.6 8.7 0.00 0.00 0.00 33 1013.8
20260503193003 58 269 5.2 14.8 0.00 0.00 0.00 32 1013.9
20260503192503 58 266 6.1 14.8 0.00 0.00 0.00 32 1014.0
20260503192003 58 272 4.3 13.9 0.00 0.00 0.00 33 1014.1
20260503191503 58 281 4.3 13.9 0.00 0.00 0.00 33 1014.0
20260503191003 58 279 4.3 13.9 0.00 0.00 0.00 33 1014.1
20260503190503 58 274 4.3 13.9 0.00 0.00 0.00 33 1014.1
20260503190003 58 273 4.3 14.8 0.00 0.00 0.00 33 1014.2
20260503185503 58 270 4.3 14.8 0.00 0.00 0.00 32 1014.2
20260503185003 57 273 4.3 14.8 0.00 0.00 0.00 33 1014.2
20260503184503 57 272 5.2 14.8 0.00 0.00 0.00 33 1014.4
20260503184003 58 270 4.3 14.8 0.00 0.00 0.00 33 1014.5
20260503183503 58 278 4.3 14.8 0.00 0.00 0.00 35 1014.6
20260503183003 57 279 3.5 14.8 0.00 0.00 0.00 34 1014.7
20260503182504 57 281 5.2 20.9 0.00 0.00 0.00 33 1014.7
20260503182004 57 282 5.2 20.9 0.00 0.00 0.00 32 1014.8
20260503181504 57 279 5.2 15.6 0.00 0.00 0.00 35 1014.7
20260503181218 57 277 5.2 15.6 0.00 0.00 0.00 35 1014.7
20260503180503 56 274 4.3 14.8 0.00 0.00 0.00 36 1014.7
20260503180004 56 268 5.2 13.9 0.00 0.00 0.00 37 1014.7
20260503175504 56 267 6.1 16.5 0.00 0.00 0.00 37 1014.8
20260503175003 56 274 6.1 16.5 0.00 0.00 0.00 35 1014.9
20260503174503 56 280 5.2 16.5 0.00 0.00 0.00 35 1014.9
20260503174004 57 278 5.2 16.5 0.00 0.00 0.00 34 1014.9
20260503173718 57 276 5.2 16.5 0.00 0.00 0.00 34 1014.9
20260503173003 57 266 5.2 17.4 0.00 0.00 0.00 34 1014.8
20260503172718 57 267 4.3 17.4 0.00 0.00 0.00 34 1014.9
20260503172217 57 269 3.5 17.4 0.00 0.00 0.00 34 1014.9
20260503171503 57 270 4.3 9.6 0.00 0.00 0.00 35 1015.0
20260503171003 56 274 5.2 13.0 0.00 0.00 0.00 36 1015.0
20260503170504 56 276 5.2 13.9 0.00 0.00 0.00 35 1015.2
20260503151003 51 284 6.1 15.6 0.00 0.00 0.00 38 1015.8
20260503150504 51 281 6.1 15.6 0.00 0.00 0.00 38 1015.9
20260503150218 51 282 8.7 24.3 0.00 0.00 0.00 38 1015.8
20260503131003 44 284 4.3 13.0 0.00 0.00 0.00 55 1015.9
20260503130503 44 276 4.3 22.6 0.00 0.00 0.00 56 1015.9
20260503110503 38 272 3.5 7.8 0.00 0.00 0.00 75 1015.0